OAL017 LGAV-LIBR

Flight info

Callsign OAL017
Flight time 1h 0m
Altitude 34000
Route KOR UL53 IXONI DCT VARDI DCT VJOSA DCT GOKEL DCT NUCRE
Aircraft A20N/M-SDE2E3FGHIRWXY/LB1

Departure

Time 2026-04-26 20:39
Airport Athens Eleftherios Venizelos International Airport (LGAV)

Arrival

Time 2026-04-26 21:40
Airport Brindisi Airport (LIBR)
Time Latitude Longitude Altitude Speed Heading
2026-04-26 20:26 37.94137 23.95335 303 ft 0 kts 218°
2026-04-26 20:31 37.94142 23.95340 303 ft 4 kts 218°
2026-04-26 20:31 37.94164 23.95361 304 ft 4 kts 218°
2026-04-26 20:32 37.94185 23.95382 303 ft 4 kts 218°
2026-04-26 20:32 37.94206 23.95401 306 ft 4 kts 194°
2026-04-26 20:32 37.94227 23.95394 302 ft 0 kts 127°
2026-04-26 20:33 37.94221 23.95404 304 ft 4 kts 127°
2026-04-26 20:33 37.94190 23.95457 305 ft 11 kts 127°
2026-04-26 20:34 37.94132 23.95555 303 ft 17 kts 127°
2026-04-26 20:34 37.94098 23.95685 300 ft 14 kts 70°
2026-04-26 20:34 37.94161 23.95763 303 ft 15 kts 38°
2026-04-26 20:34 37.94260 23.95860 301 ft 21 kts 38°
2026-04-26 20:35 37.94392 23.95990 303 ft 27 kts 37°
2026-04-26 20:35 37.94555 23.96140 303 ft 31 kts 36°
2026-04-26 20:35 37.94743 23.96311 305 ft 35 kts 36°
2026-04-26 20:35 37.94943 23.96508 304 ft 38 kts 38°
2026-04-26 20:36 37.95161 23.96714 307 ft 40 kts 37°
2026-04-26 20:36 37.95297 23.96875 308 ft 15 kts 79°
2026-04-26 20:36 37.95279 23.96928 308 ft 0 kts 127°
2026-04-26 20:37 37.95278 23.96929 310 ft 0 kts 127°
2026-04-26 20:37 37.95276 23.96933 310 ft 2 kts 127°
2026-04-26 20:37 37.95252 23.96974 313 ft 9 kts 127°
2026-04-26 20:38 37.95197 23.97018 313 ft 9 kts 183°
2026-04-26 20:38 37.95131 23.96964 312 ft 16 kts 216°
2026-04-26 20:38 37.95017 23.96860 312 ft 29 kts 216°
2026-04-26 20:38 37.94640 23.96502 299 ft 106 kts 216°
2026-04-26 20:39 37.93857 23.95751 300 ft 174 kts 219°
2026-04-26 20:39 37.92808 23.94782 665 ft 197 kts 216°
2026-04-26 20:39 37.91670 23.93823 1469 ft 197 kts 213°
2026-04-26 20:39 37.90484 23.92935 2287 ft 200 kts 210°
2026-04-26 20:40 37.89202 23.92073 2894 ft 223 kts 211°
2026-04-26 20:40 37.87773 23.91045 3517 ft 240 kts 211°
2026-04-26 20:40 37.86297 23.89973 4193 ft 249 kts 212°
2026-04-26 20:40 37.84777 23.88872 4981 ft 254 kts 211°
2026-04-26 20:41 37.83180 23.87844 5715 ft 264 kts 207°
2026-04-26 20:41 37.81465 23.86858 6374 ft 276 kts 206°
2026-04-26 20:41 37.79692 23.85855 7142 ft 282 kts 206°
2026-04-26 20:41 37.77891 23.84833 8007 ft 285 kts 206°
2026-04-26 20:42 37.76075 23.83789 8912 ft 288 kts 206°
2026-04-26 20:42 37.74270 23.82742 9779 ft 291 kts 206°
2026-04-26 20:42 37.72424 23.81658 10562 ft 294 kts 206°
2026-04-26 20:42 37.70559 23.80534 11287 ft 299 kts 210°
2026-04-26 20:43 37.68969 23.78832 11879 ft 307 kts 234°
2026-04-26 20:43 37.68006 23.76368 12190 ft 323 kts 258°
2026-04-26 20:43 37.67888 23.73449 12541 ft 338 kts 279°
2026-04-26 20:43 37.68387 23.70516 13151 ft 345 kts 287°
2026-04-26 20:44 37.69099 23.67646 13870 ft 350 kts 290°
2026-04-26 20:44 37.69865 23.64708 14547 ft 354 kts 290°
2026-04-26 20:44 37.70636 23.61740 15237 ft 358 kts 290°
2026-04-26 20:44 37.71410 23.58739 15948 ft 361 kts 290°
2026-04-26 20:45 37.72186 23.55710 16660 ft 364 kts 290°
2026-04-26 20:45 37.72965 23.52654 17372 ft 367 kts 290°
2026-04-26 20:45 37.73747 23.49572 18086 ft 371 kts 290°
2026-04-26 20:45 37.74533 23.46452 18729 ft 374 kts 290°
2026-04-26 20:46 37.75325 23.43310 19338 ft 377 kts 290°
2026-04-26 20:46 37.76126 23.40141 19950 ft 379 kts 290°
2026-04-26 20:46 37.76936 23.36959 20570 ft 382 kts 290°
2026-04-26 20:46 37.77754 23.33754 21159 ft 384 kts 290°
2026-04-26 20:47 37.78580 23.30530 21748 ft 387 kts 290°
2026-04-26 20:47 37.79131 23.28384 22141 ft 389 kts 290°
2026-04-26 20:47 37.80258 23.24011 22919 ft 392 kts 290°
2026-04-26 20:47 37.81107 23.20724 23475 ft 395 kts 290°
2026-04-26 20:48 37.81968 23.17412 23963 ft 397 kts 292°
2026-04-26 20:48 37.83169 23.14264 24414 ft 398 kts 300°
2026-04-26 20:48 37.84563 23.11234 24858 ft 400 kts 302°
2026-04-26 20:48 37.86007 23.08213 25308 ft 402 kts 302°
2026-04-26 20:49 37.87468 23.05181 25749 ft 404 kts 302°
2026-04-26 20:49 37.88937 23.02134 26161 ft 407 kts 302°
2026-04-26 20:49 37.90414 22.99068 26572 ft 409 kts 302°
2026-04-26 20:49 37.91899 22.95983 26980 ft 411 kts 302°
2026-04-26 20:50 37.93414 22.92900 27378 ft 414 kts 303°
2026-04-26 20:50 37.95017 22.89859 27781 ft 416 kts 304°
2026-04-26 20:50 37.96675 22.86842 28180 ft 418 kts 305°
2026-04-26 20:50 37.98356 22.83832 28562 ft 420 kts 305°
2026-04-26 20:51 38.00048 22.80809 28937 ft 422 kts 305°
2026-04-26 20:51 38.01747 22.77761 29272 ft 424 kts 305°
2026-04-26 20:51 38.03450 22.74688 29552 ft 428 kts 305°
2026-04-26 20:51 38.05159 22.71588 29890 ft 430 kts 304°
2026-04-26 20:52 38.06873 22.68467 30231 ft 432 kts 304°
2026-04-26 20:52 38.08588 22.65338 30621 ft 431 kts 304°
2026-04-26 20:52 38.10294 22.62221 31030 ft 429 kts 304°
2026-04-26 20:52 38.11994 22.59113 31412 ft 428 kts 304°
2026-04-26 20:53 38.13690 22.56007 31793 ft 427 kts 304°
2026-04-26 20:53 38.15383 22.52907 32176 ft 426 kts 304°
2026-04-26 20:53 38.17071 22.49811 32518 ft 426 kts 304°
2026-04-26 20:53 38.18732 22.46764 32862 ft 425 kts 303°
2026-04-26 20:54 38.20411 22.43680 33177 ft 425 kts 303°
2026-04-26 20:54 38.22096 22.40583 33436 ft 426 kts 303°
2026-04-26 20:54 38.23778 22.37488 33754 ft 425 kts 303°
2026-04-26 20:54 38.25458 22.34395 34055 ft 425 kts 303°
2026-04-26 20:55 38.27142 22.31290 34108 ft 426 kts 303°
2026-04-26 20:55 38.30637 22.25223 34103 ft 426 kts 310°
2026-04-26 20:56 38.35182 22.20387 34105 ft 428 kts 323°
2026-04-26 20:56 38.40210 22.16284 34113 ft 430 kts 326°
2026-04-26 20:57 38.45324 22.12319 34115 ft 430 kts 326°
2026-04-26 20:57 38.50449 22.08338 34115 ft 432 kts 326°
2026-04-26 20:58 38.55571 22.04318 34122 ft 432 kts 326°
2026-04-26 20:58 38.60687 22.00278 34121 ft 432 kts 325°
2026-04-26 20:59 38.65785 21.96211 34134 ft 431 kts 322°
2026-04-26 20:59 38.70414 21.91388 34127 ft 429 kts 316°
2026-04-26 21:00 38.74855 21.86296 34137 ft 428 kts 315°
2026-04-26 21:00 38.79254 21.81143 34139 ft 428 kts 315°
2026-04-26 21:01 38.83625 21.76020 34134 ft 429 kts 315°
2026-04-26 21:01 38.88054 21.70838 34128 ft 428 kts 315°
2026-04-26 21:02 38.92454 21.65689 34131 ft 428 kts 315°
2026-04-26 21:02 38.96849 21.60540 34131 ft 428 kts 315°
2026-04-26 21:03 39.01215 21.55415 34132 ft 428 kts 315°
2026-04-26 21:03 39.05604 21.50252 34131 ft 428 kts 315°
2026-04-26 21:04 39.09993 21.45079 34127 ft 428 kts 315°
2026-04-26 21:04 39.14374 21.39908 34128 ft 427 kts 315°
2026-04-26 21:05 39.18750 21.34732 34123 ft 427 kts 315°
2026-04-26 21:05 39.23127 21.29547 34123 ft 427 kts 315°
2026-04-26 21:06 39.27503 21.24354 34131 ft 427 kts 315°
2026-04-26 21:06 39.31873 21.19160 34129 ft 427 kts 315°
2026-04-26 21:07 39.36244 21.13953 34124 ft 427 kts 315°
2026-04-26 21:07 39.40614 21.08739 34131 ft 428 kts 315°
2026-04-26 21:08 39.44998 21.03499 34126 ft 429 kts 315°
2026-04-26 21:08 39.49374 20.98258 34125 ft 428 kts 315°
2026-04-26 21:09 39.53749 20.93012 34126 ft 429 kts 315°
2026-04-26 21:09 39.58126 20.87753 34127 ft 429 kts 315°
2026-04-26 21:10 39.62498 20.82489 34126 ft 429 kts 315°
2026-04-26 21:10 39.66869 20.77217 34134 ft 429 kts 315°
2026-04-26 21:11 39.71245 20.71930 34133 ft 430 kts 315°
2026-04-26 21:11 39.75621 20.66632 34127 ft 430 kts 315°
2026-04-26 21:12 39.79996 20.61328 34111 ft 430 kts 315°
2026-04-26 21:12 39.84337 20.56054 34107 ft 430 kts 315°
2026-04-26 21:13 39.88708 20.50735 34108 ft 430 kts 315°
2026-04-26 21:13 39.93078 20.45408 34119 ft 430 kts 315°
2026-04-26 21:14 39.97378 20.40002 34104 ft 429 kts 309°
2026-04-26 21:14 40.00738 20.33598 34103 ft 428 kts 301°
2026-04-26 21:15 40.03284 20.28072 34111 ft 428 kts 300°
2026-04-26 21:15 40.06276 20.21360 34111 ft 428 kts 299°
2026-04-26 21:16 40.09264 20.14649 34106 ft 428 kts 299°
2026-04-26 21:16 40.12267 20.07941 34108 ft 428 kts 300°
2026-04-26 21:17 40.15274 20.01229 34103 ft 428 kts 300°
2026-04-26 21:17 40.18279 19.94511 34105 ft 428 kts 300°
2026-04-26 21:18 40.21279 19.87787 34100 ft 428 kts 299°
2026-04-26 21:18 40.24274 19.81060 34101 ft 428 kts 299°
2026-04-26 21:19 40.27268 19.74320 34100 ft 429 kts 300°
2026-04-26 21:19 40.30241 19.67610 33889 ft 418 kts 299°
2026-04-26 21:19 40.31686 19.64347 33516 ft 413 kts 299°
2026-04-26 21:20 40.33138 19.61060 32691 ft 420 kts 299°
2026-04-26 21:20 40.34599 19.57751 32212 ft 418 kts 299°
2026-04-26 21:20 40.36051 19.54457 31731 ft 416 kts 300°
2026-04-26 21:20 40.37493 19.51185 31249 ft 414 kts 300°
2026-04-26 21:21 40.38933 19.47912 30752 ft 413 kts 300°
2026-04-26 21:21 40.40363 19.44659 30242 ft 411 kts 300°
2026-04-26 21:21 40.41788 19.41413 29686 ft 409 kts 300°
2026-04-26 21:21 40.43202 19.38191 29192 ft 406 kts 300°
2026-04-26 21:22 40.44602 19.34996 28710 ft 402 kts 299°
2026-04-26 21:22 40.45990 19.31827 28222 ft 399 kts 299°
2026-04-26 21:22 40.47349 19.28720 27729 ft 396 kts 299°
2026-04-26 21:23 40.50075 19.22477 26742 ft 392 kts 299°
2026-04-26 21:23 40.51426 19.19379 26241 ft 390 kts 299°
2026-04-26 21:23 40.52770 19.16292 25751 ft 388 kts 299°
2026-04-26 21:23 40.54106 19.13223 25258 ft 386 kts 299°
2026-04-26 21:24 40.55437 19.10161 24778 ft 385 kts 298°
2026-04-26 21:24 40.56761 19.07110 24282 ft 383 kts 298°
2026-04-26 21:24 40.58081 19.04069 23794 ft 382 kts 298°
2026-04-26 21:24 40.59196 19.00918 23226 ft 379 kts 287°
2026-04-26 21:25 40.59730 18.97549 22756 ft 374 kts 277°
2026-04-26 21:25 40.59987 18.94159 22260 ft 371 kts 274°
2026-04-26 21:25 40.60108 18.90783 21765 ft 368 kts 272°
2026-04-26 21:25 40.60157 18.87433 21291 ft 365 kts 271°
2026-04-26 21:26 40.60179 18.84106 20831 ft 362 kts 270°
2026-04-26 21:26 40.60197 18.80811 20340 ft 359 kts 270°
2026-04-26 21:26 40.60221 18.77539 19873 ft 356 kts 271°
2026-04-26 21:26 40.60253 18.74334 19409 ft 354 kts 271°
2026-04-26 21:27 40.60292 18.71107 18936 ft 352 kts 271°
2026-04-26 21:27 40.60336 18.67899 18469 ft 350 kts 271°
2026-04-26 21:27 40.60381 18.64706 17951 ft 348 kts 271°
2026-04-26 21:27 40.60426 18.61540 17479 ft 344 kts 271°
2026-04-26 21:28 40.60470 18.58407 17023 ft 341 kts 271°
2026-04-26 21:28 40.60512 18.55301 16564 ft 338 kts 271°
2026-04-26 21:28 40.60553 18.52220 16101 ft 335 kts 271°
2026-04-26 21:28 40.60592 18.49162 15650 ft 333 kts 271°
2026-04-26 21:29 40.60631 18.46118 15191 ft 331 kts 271°
2026-04-26 21:29 40.60668 18.43094 14694 ft 331 kts 271°
2026-04-26 21:29 40.60704 18.40018 13802 ft 342 kts 271°
2026-04-26 21:29 40.60735 18.36825 12764 ft 355 kts 271°
2026-04-26 21:30 40.60763 18.33541 11591 ft 363 kts 271°
2026-04-26 21:30 40.60783 18.30231 10759 ft 360 kts 271°
2026-04-26 21:30 40.60800 18.27001 10299 ft 346 kts 271°
2026-04-26 21:30 40.60815 18.23932 10139 ft 323 kts 271°
2026-04-26 21:31 40.60608 18.21107 10115 ft 301 kts 253°
2026-04-26 21:31 40.59620 18.18761 10088 ft 292 kts 228°
2026-04-26 21:31 40.58020 18.17181 9561 ft 290 kts 203°
2026-04-26 21:31 40.56058 18.16657 8903 ft 290 kts 177°
2026-04-26 21:32 40.54074 18.17052 8312 ft 288 kts 166°
2026-04-26 21:32 40.52129 18.17691 7718 ft 288 kts 165°
2026-04-26 21:32 40.50191 18.18369 7115 ft 289 kts 165°
2026-04-26 21:32 40.48253 18.19054 6584 ft 287 kts 165°
2026-04-26 21:33 40.46332 18.19732 6032 ft 285 kts 166°
2026-04-26 21:33 40.44371 18.19921 5474 ft 283 kts 190°
2026-04-26 21:33 40.42571 18.18975 4916 ft 279 kts 218°
2026-04-26 21:33 40.41324 18.17124 4338 ft 273 kts 245°
2026-04-26 21:34 40.40868 18.14763 3756 ft 266 kts 274°
2026-04-26 21:34 40.41313 18.12477 3252 ft 256 kts 303°
2026-04-26 21:34 40.42524 18.10875 3023 ft 245 kts 333°
2026-04-26 21:34 40.44137 18.10173 3005 ft 246 kts 351°
2026-04-26 21:35 40.45837 18.09965 2737 ft 246 kts
2026-04-26 21:35 40.47529 18.10263 2518 ft 245 kts
2026-04-26 21:35 40.49206 18.10692 2494 ft 246 kts 11°
2026-04-26 21:35 40.50901 18.10978 2511 ft 247 kts 360°
2026-04-26 21:36 40.52551 18.10524 2478 ft 235 kts 336°
2026-04-26 21:36 40.53452 18.09817 2479 ft 222 kts 324°
2026-04-26 21:36 40.54917 18.08051 2495 ft 212 kts 318°
2026-04-26 21:36 40.55980 18.06717 2513 ft 205 kts 319°
2026-04-26 21:37 40.56983 18.05492 2399 ft 192 kts 320°
2026-04-26 21:37 40.57955 18.04319 2137 ft 184 kts 320°
2026-04-26 21:37 40.58872 18.03199 1872 ft 176 kts 320°
2026-04-26 21:37 40.59751 18.02123 1634 ft 170 kts 319°
2026-04-26 21:38 40.60596 18.01091 1402 ft 161 kts 319°
2026-04-26 21:38 40.61394 18.00116 1192 ft 151 kts 319°
2026-04-26 21:38 40.62133 17.99212 1018 ft 138 kts 319°
2026-04-26 21:38 40.62813 17.98381 830 ft 130 kts 318°
2026-04-26 21:39 40.63478 17.97569 663 ft 131 kts 317°
2026-04-26 21:39 40.64151 17.96747 486 ft 132 kts 316°
2026-04-26 21:39 40.64827 17.95920 311 ft 133 kts 316°
2026-04-26 21:39 40.65501 17.95095 137 ft 133 kts 316°
2026-04-26 21:40 40.66170 17.94273 43 ft 125 kts 316°
2026-04-26 21:40 40.66614 17.93741 43 ft 47 kts 319°
2026-04-26 21:40 40.66730 17.93638 42 ft 8 kts 10°
2026-04-26 21:40 40.66752 17.93652 40 ft 1 kts 44°
2026-04-26 21:41 40.66752 17.93653 40 ft 1 kts 44°
2026-04-26 21:41 40.66767 17.93672 44 ft 5 kts 44°
2026-04-26 21:41 40.66802 17.93717 46 ft 9 kts 44°
2026-04-26 21:42 40.66814 17.93783 47 ft 8 kts 102°
2026-04-26 21:42 40.66778 17.93838 47 ft 11 kts 137°
2026-04-26 21:42 40.66703 17.93930 47 ft 19 kts 137°
2026-04-26 21:42 40.66585 17.94073 47 ft 27 kts 137°
2026-04-26 21:43 40.66451 17.94233 47 ft 20 kts 138°
2026-04-26 21:43 40.66329 17.94376 47 ft 18 kts 138°
2026-04-26 21:43 40.66321 17.94387 47 ft 0 kts 138°
2026-04-26 21:43 40.66316 17.94392 47 ft 4 kts 138°
2026-04-26 21:44 40.66263 17.94455 47 ft 16 kts 138°
2026-04-26 21:44 40.66148 17.94560 46 ft 22 kts 175°
2026-04-26 21:44 40.65985 17.94520 41 ft 26 kts 197°
2026-04-26 21:44 40.65845 17.94375 46 ft 19 kts 232°
2026-04-26 21:45 40.65815 17.94260 47 ft 13 kts 274°
2026-04-26 21:45 40.65819 17.94130 47 ft 11 kts 280°
2026-04-26 21:45 40.65821 17.94123 47 ft 0 kts 291°